Погода в Туркменбаши

Погода в Туркменбаши : погода сейчас, прогноз погоды и архив. Всё, что Вы хотите узнать о погоде в Туркменбаши!

Поиск расширенной информации на нашем сайте:

Полезная информация: Видеоэндоскопы mitcorp видеоэндоскоп.

Другие новости

Новости СМИ2

Главная страница сайта

Новости сайта

02.10.2013

Напоминаем, что на нашем новом сайте вы можете получить высокодетализированные прогнозы погоды по пунктам России, СНГ и мира (включающие важные для авиации метеовеличины, такие как направление и скорость ветра, видимость, явления погоды, количество и форма облачности, нижняя и верхняя граница облачности), а также ознакомиться с разнообразными материалами по авиационной метеорологии и подборкой полезных ссылок на эту тему.

Сайт Метеоцентр.Азия посвящён разработке технологий оптимизации авиаметеорологического обслуживания, включая проектирование и перспективное создание нескольких автоматизированных авиаметеорологических систем:
- система выпуска высокодетальных прогностических карт явлений погоды для нижнего воздушного пространства по России и ближнему зарубежью;
- система верификации прогнозов TAF (выпускаемых синоптиками официальных АМСГ РФ и ближнего зарубежья) и AUTOTAF (выпускаемых сайтом Метеоцентр.Азия) - выявление ошибок, онлайн-сопоставление с фактической погодой METAR, автоматическое внесение коррективов в прогнозы при резком отклонении фактической погоды от прогноза, подсчёт оправдываемости прогнозов по элементам и в целом;
- система обработки, анализа и отображения авиаметеорологической информации для применения провайдерами метеорологической информации.

Рекомендуем: Рентгеновская пленка fomadux купить пленка рентгеновская купить в москве.

Погода в Туркменбаши - сегодня

Время (UTC), дата Ветер
(°,м/с) 
Видим.   Явления Облачность Т
(°С)
Тd
(°С)
f(%) Тe
(°С)
Pmin
(гПа)
dP
(гПа)
Po
(мм)
O2
(г/м3)
Тmin Tmax R s Состояние
почвы
18 27.03.17 240 (ЮЗ) 4000 м    3/0 верхняя 
[Ci fib]
+13.6 +4 52 +13  1012.3  0.4  752  288    +17.7       
21 27.03.17 010 (С) 0500 м  туман  ?/?  
+7.6 +7.4 99 +6  1012.6  752  293           
00 28.03.17 010 (С) 4000 м  дымка{туман}  10/10 60 м 
[St]
+6.8 +6.4 97 +5  1011.6  -1  751  294           
03 28.03.17 340 (С) 4000 м  дымка  10/10 60 м 
[St]
+5.7 +5 95 +5  1011.9  0.3  751  296           
06 28.03.17 330 (СЗ) 20000 м    8/8 330 м 
[Sc]
+8.8 +5.3 79 +7  1013.8  1.9  753  293  +5.7         
09 28.03.17 340 (С) 20000 м    5/5 700 м 
[Sc]
+13 +5 58 +11  1014.4  0.8  753  289           
12 28.03.17 330 (СЗ) 10  20000 м    5/0 средняя, верхняя 
[Ac trans|Ci fib]
+13.1 +4.1 54 +11  1014.7  0.3  754  289           
15 28.03.17 320 (СЗ) 20000 м    10/0 средняя, верхняя 
[Ac trans|Ci fib]
+9.2 +3.8 69 +7  1017.5  2.6  755  294    +13.8       
18 28.03.17 300 (СЗ) 4000 м    8/0 средняя 
[Ac trans]
+7.2 +4.5 83 +6  1018.9  1.3  756  296    +13.8       
21 28.03.17 тихо ()   4000 м    4/0 средняя 
[Ac trans]
+5.8 +4.6 92 +6  1018.4  -0.5  756  298           
00 29.03.17 260 (З) 4000 м    ясно 
+5.1 +3.7 91 +6  1017.5  -1  755  298           
03 29.03.17 180 (Ю) 20000 м    10/5 330 м верхняя 
[St|Ci fib]
+8.2 +7 92 +6  1016.8  -0.5  755  294           
06 29.03.17 200 (Ю) 20000 м    8/3 300 м верхняя 
[St|Ci fib]
+10.9 +7.4 79 +9  1017.5  0.8  756  292  +4.4         
09 29.03.17 240 (ЮЗ) 20000 м    3/0 средняя 
[Ac trans]
+13.3 +5.5 59 +12  1018.2  0.8  756  290           
12 29.03.17 340 (С) 20000 м    ясно 
+14.1 +3.6 49 +14  1018.3  0.1  756  289           
15 29.03.17 350 (С) 20000 м    ясно 
+12.8 -0.7 39 +12  1020.4  758  292    +16.3       
18 29.03.17 350 (С) 4000 м    ясно 
+7.6 +0.6 61 +6  1024.4  3.8  761  298    +16.3       
21 29.03.17 010 (С) 4000 м    ясно 
+3.8 -1.5 68 +2  1026.5  1.9  762  303           
00 30.03.17 060 (СВ) 4000 м    ясно 
+3.4 -3 63 +3  1026.9  0.4  762  304           
03 30.03.17 100 (В) 20000 м    ясно 
+4.2 -3 59 +3  1027.6  0.7  763  303           
06 30.03.17 140 (ЮВ) 20000 м    ясно 
+12.8 -0.7 39 +12  1027.3  763  294  +3.4         
09 30.03.17 160 (Ю) 10  20000 м    ясно 
+15 +2.1 42 +14  1025.4  -1.8  761  291           
12 30.03.17 210 (ЮЗ) 20000 м    ясно 
+14.6 +3.6 48 +14  1022.1  -3.2  759  290           
15 30.03.17 190 (Ю) 20000 м    ясно 
+11.6 +5.3 65 +11  1020.2  -2  758  292    +16.6       
18 30.03.17 тихо ()   4000 м    ясно 
+6.1 +2.7 79 +6  1019.4  -1  757  298    +16.6       
Время (UTC), дата Ветер
(°,м/с) 
Видим.   Явления Облачность Т
(°С)
Тd
(°С)
f(%) Тe
(°С)
Pmin
(гПа)
dP
(гПа)
Po
(мм)
O2
(г/м3)
Тmin Tmax R s Состояние
почвы

Для получения пояснительной информации подведите курсор к названию столбца.

ПОГОДА в Туркменбаши - архив

Всё, что Вы хотите узнать о погоде в Туркменбаши - удобно и подробно!

Выберите нужную дату (начиная с 1 января 2015* года) и нажмите кнопку "Найти".
Будут отображены архивные сводки погоды по пункту Туркменбаши, начиная с указанной даты.


Отображать данные в формате CSV (для использования в таблицах Excel)


Внимание! Наш архив погоды предназначен исключительно для личного некоммерческого использования в познавательных целях. Если Вам необходимы официальные справки о состоянии погоды (для производственных, юридических, коммерческих и т.п. целей), обращайтесь в органы Росгидромета.

*Примечание: данная дата относится к архиву по метеостанциям СССР (Россия, СНГ, Балтия).
Архив по метеостанциям Зарубежной Европы и Азии (кроме Китая) хранится 10 дней, по другим регионам земного шара (Китай, Африка, Америка, Австралия, Океания) - 1 день.

Туркменбаши - район местоположения метеостанции


Название, широта, долгота, высота метеостанции:
Туркменбаши (Красноводск) 40.1°ш. 53°д. -13 м над ур. моря [Туркменистан]

Дополнительная информация

В oтличие oт бoльшинства пoгoдных сайтoв мы публикуем пoдрoбную метеoинфoрмацию в детальнoм прoфессиoнальнoм фoрмате.

Характеристики температуры и влажнoсти вoздуха измеряются на высoте 2 м в тени вдали oт зданий и деревьев.
Скoрoсть ветра измеряется на высoте 10 м (на урoвне рoста челoвека скoрoсть ветра ниже в 1.5-2 раза). Если метеoстанция нахoдится в гoрoде или в лесу, тo скoрoсть ветра занижена на 2-4 м/с пo сравнению с oткрытым местoм. Скoрoсть ветра над акватoриями крупных рек и oзёр, а также на вершинах хoлмoв на 2-5 м/с выше, чем в oбычных услoвиях.
Атмoсфернoе давление в разных тoчках местнoсти мoжет значительнo oтличаться oт давления на метеoстанции, в зависимoсти oт услoвий рельефа (при пoдъёме на 10 м давление пoнижается примернo на 1 мм рт.ст.).